TimePDT,TemperatureF,Dew PointF,Humidity,Sea Level PressureIn,VisibilityMPH,Wind Direction,Wind SpeedMPH,Gust SpeedMPH,PrecipitationIn,Events,Conditions,WindDirDegrees,DateUTC
12:15 AM,48.2,48.2,100,29.89,4.0,Calm,Calm,-,N/A,,Mostly Cloudy,0,2012-10-03 07:15:00
12:35 AM,48.2,48.2,100,29.89,5.0,Calm,Calm,-,N/A,,Overcast,0,2012-10-03 07:35:00
12:55 AM,48.2,48.2,100,29.89,5.0,Calm,Calm,-,N/A,,Mostly Cloudy,0,2012-10-03 07:55:00
1:15 AM,48.2,48.2,100,29.89,5.0,Calm,Calm,-,N/A,,Partly Cloudy,0,2012-10-03 08:15:00
1:35 AM,48.2,48.2,100,29.90,5.0,Calm,Calm,-,N/A,,Clear,0,2012-10-03 08:35:00
1:55 AM,48.2,48.2,100,29.90,3.0,Calm,Calm,-,N/A,,Clear,0,2012-10-03 08:55:00
2:15 AM,48.2,48.2,100,29.89,4.0,Calm,Calm,-,N/A,,Clear,0,2012-10-03 09:15:00
2:35 AM,48.2,48.2,100,29.89,5.0,Calm,Calm,-,N/A,,Clear,0,2012-10-03 09:35:00
2:55 AM,50.0,50.0,100,29.88,9.0,SE,3.5,-,N/A,,Clear,140,2012-10-03 09:55:00
3:15 AM,48.2,48.2,100,29.88,5.0,Calm,Calm,-,N/A,,Clear,0,2012-10-03 10:15:00
3:35 AM,48.2,48.2,100,29.88,5.0,Calm,Calm,-,N/A,,Clear,0,2012-10-03 10:35:00
3:55 AM,48.2,48.2,100,29.88,2.0,Calm,Calm,-,N/A,,Clear,0,2012-10-03 10:55:00
4:15 AM,48.2,48.2,100,29.88,4.0,Calm,Calm,-,N/A,,Clear,0,2012-10-03 11:15:00
4:35 AM,50.0,50.0,100,29.88,4.0,Calm,Calm,-,N/A,,Clear,0,2012-10-03 11:35:00
4:55 AM,48.2,48.2,100,29.88,7.0,Calm,Calm,-,N/A,,Clear,0,2012-10-03 11:55:00
5:15 AM,48.2,48.2,100,29.88,5.0,SE,5.8,-,N/A,,Clear,140,2012-10-03 12:15:00
5:35 AM,48.2,48.2,100,29.88,8.0,SE,8.1,-,N/A,,Clear,140,2012-10-03 12:35:00
6:15 AM,48.2,48.2,100,29.88,10.0,SSE,8.1,-,N/A,,Clear,150,2012-10-03 13:15:00
6:35 AM,50.0,48.2,94,29.88,10.0,SE,9.2,-,N/A,,Clear,130,2012-10-03 13:35:00
6:55 AM,51.8,48.2,88,29.87,10.0,SE,6.9,-,N/A,,Clear,130,2012-10-03 13:55:00
7:15 AM,51.8,48.2,88,29.87,10.0,SE,8.1,-,N/A,,Clear,140,2012-10-03 14:15:00
7:35 AM,50.0,48.2,94,29.87,10.0,SE,6.9,-,N/A,,Clear,130,2012-10-03 14:35:00
8:15 AM,53.6,48.2,82,29.87,10.0,SE,8.1,-,N/A,,Clear,140,2012-10-03 15:15:00
8:35 AM,55.4,48.2,77,29.87,10.0,Calm,Calm,-,N/A,,Clear,0,2012-10-03 15:35:00
8:55 AM,59.0,48.2,67,29.87,10.0,Calm,Calm,-,N/A,,Clear,0,2012-10-03 15:55:00
9:15 AM,60.8,48.2,63,29.87,10.0,Calm,Calm,-,N/A,,Clear,0,2012-10-03 16:15:00
9:35 AM,62.6,48.2,59,29.87,10.0,Calm,Calm,-,N/A,,Clear,0,2012-10-03 16:35:00
9:55 AM,64.4,50.0,59,29.88,10.0,Calm,Calm,-,N/A,,Clear,0,2012-10-03 16:55:00
10:15 AM,68.0,46.4,46,29.88,10.0,Calm,Calm,-,N/A,,Clear,0,2012-10-03 17:15:00
10:35 AM,68.0,50.0,52,29.88,10.0,Calm,Calm,-,N/A,,Clear,0,2012-10-03 17:35:00
10:55 AM,71.6,48.2,43,29.88,10.0,Calm,Calm,-,N/A,,Clear,0,2012-10-03 17:55:00
11:15 AM,73.4,53.6,50,29.88,10.0,Calm,Calm,-,N/A,,Clear,0,2012-10-03 18:15:00
11:35 AM,71.6,55.4,57,29.88,10.0,NW,5.8,-,N/A,,Clear,310,2012-10-03 18:35:00
11:55 AM,69.8,57.2,64,29.88,8.0,NW,10.4,-,N/A,,Clear,310,2012-10-03 18:55:00
12:15 PM,69.8,57.2,64,29.89,7.0,NW,9.2,-,N/A,,Clear,320,2012-10-03 19:15:00
12:35 PM,71.6,57.2,60,29.89,9.0,NW,9.2,-,N/A,,Clear,320,2012-10-03 19:35:00
12:55 PM,71.6,53.6,53,29.89,10.0,NW,11.5,-,N/A,,Clear,320,2012-10-03 19:55:00
1:15 PM,69.8,53.6,56,29.89,10.0,NW,12.7,-,N/A,,Clear,310,2012-10-03 20:15:00
1:35 PM,68.0,53.6,60,29.89,10.0,WNW,10.4,-,N/A,,Clear,300,2012-10-03 20:35:00
1:55 PM,68.0,53.6,60,29.89,9.0,NW,10.4,-,N/A,,Clear,310,2012-10-03 20:55:00
2:15 PM,68.0,53.6,60,29.89,9.0,NW,13.8,-,N/A,,Clear,310,2012-10-03 21:15:00
2:35 PM,68.0,53.6,60,29.89,9.0,WNW,12.7,-,N/A,,Clear,300,2012-10-03 21:35:00
2:55 PM,68.0,51.8,56,29.89,9.0,NW,12.7,-,N/A,,Clear,310,2012-10-03 21:55:00
3:15 PM,68.0,51.8,56,29.89,10.0,NW,12.7,-,N/A,,Clear,310,2012-10-03 22:15:00
3:35 PM,68.0,53.6,60,29.89,10.0,WNW,12.7,-,N/A,,Clear,300,2012-10-03 22:35:00
3:55 PM,66.2,53.6,64,29.89,9.0,NW,9.2,-,N/A,,Clear,320,2012-10-03 22:55:00
4:15 PM,68.0,51.8,56,29.89,9.0,NW,9.2,-,N/A,,Clear,320,2012-10-03 23:15:00
4:35 PM,66.2,50.0,56,29.89,10.0,Calm,Calm,-,N/A,,Clear,0,2012-10-03 23:35:00
4:55 PM,68.0,50.0,52,29.89,10.0,Calm,Calm,-,N/A,,Clear,0,2012-10-03 23:55:00
5:15 PM,68.0,50.0,52,29.89,10.0,Calm,Calm,-,N/A,,Clear,0,2012-10-04 00:15:00
5:35 PM,66.2,51.8,60,29.89,10.0,Calm,Calm,-,N/A,,Clear,0,2012-10-04 00:35:00
5:55 PM,62.6,53.6,72,29.89,7.0,NW,9.2,-,N/A,,Clear,310,2012-10-04 00:55:00
6:15 PM,59.0,51.8,77,29.89,5.0,Calm,Calm,-,N/A,,Clear,0,2012-10-04 01:15:00
6:35 PM,57.2,50.0,77,29.90,5.0,Calm,Calm,-,N/A,,Clear,0,2012-10-04 01:35:00
6:55 PM,55.4,50.0,82,29.90,5.0,Calm,Calm,-,N/A,,Clear,0,2012-10-04 01:55:00
7:15 PM,53.6,50.0,88,29.91,6.0,Calm,Calm,-,N/A,,Clear,0,2012-10-04 02:15:00
7:35 PM,51.8,50.0,94,29.91,5.0,Calm,Calm,-,N/A,,Clear,0,2012-10-04 02:35:00
7:55 PM,50.0,50.0,100,29.92,5.0,Calm,Calm,-,N/A,,Clear,0,2012-10-04 02:55:00
8:15 PM,50.0,50.0,100,29.92,5.0,Calm,Calm,-,N/A,,Clear,0,2012-10-04 03:15:00
8:35 PM,51.8,50.0,94,29.92,5.0,Calm,Calm,-,N/A,,Clear,0,2012-10-04 03:35:00
8:55 PM,53.6,50.0,88,29.92,5.0,Calm,Calm,-,N/A,,Clear,0,2012-10-04 03:55:00
9:15 PM,53.6,50.0,88,29.93,6.0,Calm,Calm,-,N/A,,Clear,0,2012-10-04 04:15:00
9:35 PM,51.8,50.0,94,29.93,7.0,Calm,Calm,-,N/A,,Clear,0,2012-10-04 04:35:00
9:55 PM,50.0,50.0,100,29.94,6.0,Calm,Calm,-,N/A,,Clear,0,2012-10-04 04:55:00
10:15 PM,50.0,50.0,100,29.94,5.0,Calm,Calm,-,N/A,,Clear,0,2012-10-04 05:15:00
10:35 PM,50.0,50.0,100,29.94,5.0,Calm,Calm,-,N/A,,Clear,0,2012-10-04 05:35:00
10:55 PM,51.8,50.0,94,29.95,7.0,Calm,Calm,-,N/A,,Clear,0,2012-10-04 05:55:00
11:15 PM,51.8,50.0,94,29.95,7.0,Calm,Calm,-,N/A,,Clear,0,2012-10-04 06:15:00
11:35 PM,50.0,50.0,100,29.95,6.0,Calm,Calm,-,N/A,,Clear,0,2012-10-04 06:35:00
11:55 PM,50.0,50.0,100,29.95,7.0,Calm,Calm,-,N/A,,Clear,0,2012-10-04 06:55:00